timestamp,wind_dir_avg,wind_spd_avg,wind_spd_max_dir,wind_spd_gust,battery_voltage,lat,long
2024-02-26 00:04:00+00:00,294.0,3.85,274.0,7.37,12.25,47.59359,-54.27349
2024-02-26 00:14:00+00:00,280.0,8.3,271.0,11.65,12.17,47.59359,-54.27349
2024-02-26 00:24:00+00:00,333.0,5.37,318.0,7.22,12.17,47.59359,-54.27349
2024-02-26 00:34:00+00:00,322.0,6.65,322.0,7.45,12.17,47.59359,-54.27349
2024-02-26 00:44:00+00:00,322.0,5.24,318.0,6.73,12.17,47.59359,-54.27349
2024-02-26 00:54:00+00:00,309.0,5.24,305.0,7.66,12.17,47.59359,-54.27349
2024-02-26 01:04:00+00:00,305.0,5.63,301.0,9.02,12.17,47.59359,-54.27349
2024-02-26 01:14:00+00:00,290.0,4.74,287.0,6.93,12.17,47.59359,-54.27349
2024-02-26 01:24:00+00:00,319.0,4.6,301.0,5.96,12.17,47.59359,-54.27349
2024-02-26 01:34:00+00:00,295.0,4.78,292.0,6.39,12.17,47.59359,-54.27349
2024-02-26 01:44:00+00:00,309.0,5.03,306.0,7.26,12.17,47.59359,-54.27349
2024-02-26 01:54:00+00:00,300.0,6.75,303.0,8.68,12.17,47.59359,-54.27349
2024-02-26 02:04:00+00:00,279.0,7.97,281.0,9.64,12.17,47.59359,-54.27349
2024-02-26 02:14:00+00:00,278.0,8.29,279.0,10.04,12.09,47.59359,-54.27349
2024-02-26 02:24:00+00:00,281.0,6.58,279.0,7.77,12.09,47.59359,-54.27349
2024-02-26 02:34:00+00:00,293.0,3.85,290.0,6.85,12.09,47.59359,-54.27349
2024-02-26 02:44:00+00:00,289.0,4.4,275.0,6.27,12.09,47.59359,-54.27349
2024-02-26 02:54:00+00:00,278.0,4.16,277.0,6.07,12.09,47.59359,-54.27349
2024-02-26 03:04:00+00:00,269.0,4.28,276.0,6.27,12.09,47.59359,-54.27349
2024-02-26 03:14:00+00:00,287.0,3.39,276.0,5.5,12.09,47.59359,-54.27349
2024-02-26 03:24:00+00:00,282.0,4.16,291.0,6.58,12.09,47.59359,-54.27349
2024-02-26 03:34:00+00:00,287.0,4.24,281.0,5.87,12.09,47.59359,-54.27349
2024-02-26 03:44:00+00:00,296.0,4.65,295.0,5.9,12.09,47.59359,-54.27349
2024-02-26 03:54:00+00:00,289.0,3.74,285.0,5.01,12.09,47.59359,-54.27349
2024-02-26 04:04:00+00:00,278.0,2.59,272.0,4.35,12.09,47.59359,-54.27349
2024-02-26 04:14:00+00:00,278.0,4.0,276.0,5.36,12.09,47.59359,-54.27349
2024-02-26 04:24:00+00:00,261.0,4.87,264.0,6.52,12.09,47.59359,-54.27349
2024-02-26 04:34:00+00:00,270.0,3.31,278.0,5.65,12.09,47.59359,-54.27349
2024-02-26 04:44:00+00:00,221.0,2.04,250.0,5.37,12.09,47.59359,-54.27349
2024-02-26 04:54:00+00:00,259.0,3.66,260.0,5.94,12.09,47.59359,-54.27349
2024-02-26 05:04:00+00:00,289.0,4.38,282.0,5.99,12.09,47.59359,-54.27349
2024-02-26 05:14:01+00:00,287.0,4.17,289.0,6.18,12.01,47.59359,-54.27349
2024-02-26 05:24:01+00:00,308.0,3.53,284.0,6.61,12.01,47.59359,-54.27349
2024-02-26 05:34:01+00:00,304.0,5.3,295.0,6.22,12.01,47.59359,-54.27349
2024-02-26 05:44:01+00:00,308.0,3.86,311.0,5.23,12.01,47.59359,-54.27349
2024-02-26 05:54:01+00:00,307.0,4.49,294.0,7.02,12.01,47.59359,-54.27349
2024-02-26 06:04:01+00:00,345.0,3.97,309.0,6.13,12.01,47.59359,-54.27349
2024-02-26 06:14:00+00:00,345.0,4.71,332.0,5.43,12.01,47.59359,-54.27349
2024-02-26 06:24:00+00:00,331.0,4.7,315.0,5.51,12.01,47.59359,-54.27349
2024-02-26 06:34:00+00:00,349.0,3.62,349.0,4.1,12.01,47.59359,-54.27349
2024-02-26 06:44:00+00:00,352.0,4.16,351.0,5.06,12.01,47.59359,-54.27349
2024-02-26 06:54:00+00:00,355.0,3.68,356.0,4.65,12.01,47.59359,-54.27349
2024-02-26 07:04:00+00:00,3.0,1.72,10.0,2.21,12.01,47.59359,-54.27349
2024-02-26 07:14:00+00:00,12.0,1.92,16.0,2.78,12.01,47.59359,-54.27349
2024-02-26 07:24:00+00:00,345.0,2.71,344.0,3.34,12.01,47.59359,-54.27349
2024-02-26 07:34:00+00:00,354.0,2.75,2.0,3.25,12.01,47.59359,-54.27349
2024-02-26 07:44:00+00:00,3.0,4.18,7.0,4.93,12.01,47.59359,-54.27349
2024-02-26 07:54:00+00:00,4.0,4.95,7.0,6.08,12.01,47.59359,-54.27349
2024-02-26 08:04:00+00:00,14.0,3.69,11.0,4.42,12.01,47.59359,-54.27349
2024-02-26 08:14:00+00:00,19.0,5.91,19.0,6.61,11.93,47.59359,-54.27349
2024-02-26 08:24:00+00:00,20.0,4.03,41.0,5.96,11.93,47.59359,-54.27349
2024-02-26 08:34:00+00:00,27.0,3.7,29.0,4.38,11.93,47.59359,-54.27349
2024-02-26 08:44:00+00:00,2.0,3.31,3.0,3.82,11.93,47.59359,-54.27349
2024-02-26 08:54:00+00:00,30.0,2.1,44.0,3.44,11.93,47.59359,-54.27349
2024-02-26 09:04:00+00:00,30.0,3.21,58.0,5.54,11.93,47.59359,-54.27349
2024-02-26 09:14:01+00:00,70.0,3.71,71.0,5.81,11.93,47.59359,-54.27349
2024-02-26 09:24:01+00:00,66.0,2.7,68.0,4.21,11.93,47.59359,-54.27349
2024-02-26 09:34:01+00:00,51.0,2.84,67.0,4.5,11.93,47.59359,-54.27349
2024-02-26 09:44:01+00:00,44.0,3.82,61.0,5.43,11.93,47.59359,-54.27349
2024-02-26 09:54:01+00:00,36.0,2.99,59.0,5.33,11.93,47.59359,-54.27349
2024-02-26 10:04:01+00:00,37.0,4.49,44.0,5.48,11.93,47.59359,-54.27349
2024-02-26 10:14:00+00:00,31.0,5.23,45.0,6.3,11.93,47.59359,-54.27349
2024-02-26 10:24:00+00:00,27.0,4.99,50.0,7.04,11.93,47.59359,-54.27349
2024-02-26 10:34:00+00:00,26.0,5.3,31.0,5.83,11.93,47.59359,-54.27349
2024-02-26 10:44:00+00:00,22.0,5.68,17.0,6.52,11.93,47.59359,-54.27349
2024-02-26 10:54:00+00:00,22.0,5.38,23.0,6.54,11.93,47.59359,-54.27349
2024-02-26 11:04:00+00:00,49.0,6.24,53.0,7.44,11.93,47.59359,-54.27349
2024-02-26 11:14:00+00:00,39.0,5.68,38.0,7.68,11.93,47.59359,-54.27349
2024-02-26 11:24:00+00:00,22.0,5.72,18.0,6.1,11.93,47.59359,-54.27349
2024-02-26 11:34:00+00:00,43.0,5.79,44.0,7.45,11.93,47.59359,-54.27349
2024-02-26 11:44:00+00:00,39.0,6.05,39.0,6.83,11.93,47.59359,-54.27349
2024-02-26 11:54:00+00:00,44.0,5.92,54.0,6.9,11.93,47.59359,-54.27349
2024-02-26 12:04:00+00:00,41.0,6.32,49.0,7.48,11.93,47.59359,-54.27349
2024-02-26 12:14:00+00:00,50.0,5.22,49.0,6.25,13.44,47.59359,-54.27349
2024-02-26 12:24:00+00:00,52.0,6.25,53.0,7.11,13.44,47.59359,-54.27349
2024-02-26 12:34:00+00:00,52.0,5.77,56.0,6.85,13.44,47.59359,-54.27349
2024-02-26 12:44:00+00:00,61.0,5.06,59.0,6.61,13.44,47.59359,-54.27349
2024-02-26 12:54:00+00:00,61.0,5.1,61.0,6.47,13.44,47.59359,-54.27349
2024-02-26 13:04:00+00:00,69.0,6.11,75.0,6.93,13.44,47.59359,-54.27349
2024-02-26 13:14:00+00:00,70.0,4.21,74.0,5.39,13.68,47.59359,-54.27349
2024-02-26 13:24:00+00:00,63.0,3.66,73.0,6.0,13.68,47.59359,-54.27349
2024-02-26 13:34:00+00:00,72.0,3.4,84.0,6.06,13.68,47.59359,-54.27349
2024-02-26 13:44:00+00:00,74.0,4.56,78.0,6.08,13.68,47.59359,-54.27349
2024-02-26 13:54:00+00:00,67.0,3.61,68.0,5.19,13.68,47.59359,-54.27349
2024-02-26 14:04:00+00:00,57.0,5.2,63.0,6.54,13.68,47.59359,-54.27349
2024-02-26 14:14:00+00:00,62.0,4.91,72.0,6.24,13.84,47.59359,-54.27349
2024-02-26 14:24:00+00:00,23.0,4.77,54.0,6.19,13.84,47.59359,-54.27349
2024-02-26 14:34:00+00:00,43.0,5.41,54.0,6.79,13.84,47.59359,-54.27349
2024-02-26 14:44:00+00:00,49.0,4.78,54.0,6.8,13.84,47.59359,-54.27349
2024-02-26 14:54:00+00:00,56.0,5.6,58.0,6.96,13.84,47.59359,-54.27349
2024-02-26 15:04:00+00:00,58.0,5.38,65.0,6.51,13.84,47.59359,-54.27349
2024-02-26 15:14:01+00:00,48.0,5.86,53.0,7.63,13.53,47.59359,-54.27349
2024-02-26 15:24:01+00:00,51.0,6.33,53.0,7.66,13.53,47.59359,-54.27349
2024-02-26 15:34:01+00:00,54.0,6.45,54.0,7.15,13.53,47.59359,-54.27349
2024-02-26 15:44:01+00:00,48.0,6.97,52.0,7.8,13.53,47.59359,-54.27349
2024-02-26 15:54:01+00:00,50.0,7.12,47.0,7.77,13.53,47.59359,-54.27349
2024-02-26 16:04:01+00:00,48.0,7.56,46.0,8.23,13.53,47.59359,-54.27349
2024-02-26 16:14:00+00:00,56.0,6.99,63.0,8.57,14.4,47.59359,-54.27349
2024-02-26 16:24:00+00:00,58.0,6.32,60.0,7.04,14.4,47.59359,-54.27349
2024-02-26 16:34:00+00:00,54.0,4.96,60.0,5.97,14.4,47.59359,-54.27349
2024-02-26 16:44:00+00:00,65.0,5.83,72.0,6.84,14.4,47.59359,-54.27349
2024-02-26 16:54:00+00:00,71.0,6.09,70.0,6.79,14.4,47.59359,-54.27349
2024-02-26 17:04:00+00:00,61.0,6.42,62.0,7.31,14.4,47.59359,-54.27349
2024-02-26 17:14:00+00:00,69.0,6.11,71.0,6.7,13.53,47.59359,-54.27349
2024-02-26 17:24:00+00:00,69.0,6.38,68.0,6.94,13.53,47.59359,-54.27349
2024-02-26 17:34:00+00:00,71.0,6.33,71.0,6.81,13.53,47.59359,-54.27349
2024-02-26 17:44:00+00:00,69.0,6.11,71.0,6.85,13.53,47.59359,-54.27349
2024-02-26 17:54:00+00:00,63.0,6.05,66.0,7.17,13.53,47.59359,-54.27349
2024-02-26 18:04:00+00:00,65.0,6.3,65.0,6.76,13.53,47.59359,-54.27349
2024-02-26 18:14:01+00:00,27.0,2.57,65.0,5.46,13.53,47.59359,-54.27349
2024-02-26 18:24:01+00:00,61.0,5.32,59.0,6.11,13.53,47.59359,-54.27349
2024-02-26 18:34:01+00:00,67.0,5.26,71.0,6.68,13.53,47.59359,-54.27349
2024-02-26 18:44:01+00:00,68.0,5.96,66.0,6.81,13.53,47.59359,-54.27349
2024-02-26 18:54:01+00:00,59.0,3.96,66.0,5.25,13.53,47.59359,-54.27349
2024-02-26 19:04:01+00:00,64.0,5.72,67.0,6.52,13.53,47.59359,-54.27349
2024-02-26 19:14:00+00:00,62.0,5.63,66.0,6.38,13.53,47.59359,-54.27349
2024-02-26 19:24:00+00:00,62.0,4.77,64.0,5.71,13.53,47.59359,-54.27349
2024-02-26 19:34:00+00:00,62.0,4.3,70.0,5.59,13.53,47.59359,-54.27349
2024-02-26 19:44:00+00:00,47.0,1.98,73.0,5.15,13.53,47.59359,-54.27349
2024-02-26 19:54:00+00:00,12.0,2.83,30.0,3.31,13.53,47.59359,-54.27349
2024-02-26 20:04:00+00:00,25.0,2.55,49.0,3.91,13.53,47.59359,-54.27349
2024-02-26 20:14:00+00:00,15.0,2.6,32.0,3.17,13.53,47.59359,-54.27349
2024-02-26 20:24:00+00:00,12.0,1.9,17.0,2.27,13.53,47.59359,-54.27349
2024-02-26 20:34:00+00:00,33.0,2.32,45.0,2.8,13.53,47.59359,-54.27349
2024-02-26 20:44:00+00:00,18.0,2.15,32.0,2.64,13.53,47.59359,-54.27349
2024-02-26 20:54:00+00:00,357.0,2.43,359.0,2.99,13.53,47.59359,-54.27349
2024-02-26 21:04:00+00:00,22.0,2.28,20.0,2.59,13.53,47.59359,-54.27349
2024-02-26 21:14:00+00:00,36.0,1.74,39.0,2.17,13.05,47.59359,-54.27349
2024-02-26 21:24:00+00:00,3.0,1.45,5.0,1.76,13.05,47.59359,-54.27349
2024-02-26 21:34:00+00:00,5.0,1.63,4.0,1.92,13.05,47.59359,-54.27349
2024-02-26 21:44:00+00:00,2.0,1.27,3.0,1.45,13.05,47.59359,-54.27349
2024-02-26 21:54:00+00:00,347.0,1.38,354.0,1.66,13.05,47.59359,-54.27349
2024-02-26 22:04:00+00:00,319.0,1.11,325.0,1.4,13.05,47.59359,-54.27349
2024-02-26 22:14:00+00:00,332.0,0.76,328.0,1.26,12.41,47.59359,-54.27349
2024-02-26 22:24:00+00:00,321.0,1.01,299.0,1.27,12.41,47.59359,-54.27349
2024-02-26 22:34:00+00:00,340.0,0.79,344.0,0.94,12.41,47.59359,-54.27349
2024-02-26 22:44:00+00:00,342.0,0.91,345.0,1.21,12.41,47.59359,-54.27349
2024-02-26 22:54:00+00:00,264.0,1.62,274.0,1.95,12.41,47.59359,-54.27349
2024-02-26 23:04:00+00:00,285.0,0.93,279.0,1.67,12.41,47.59359,-54.27349
2024-02-26 23:14:00+00:00,240.0,1.08,243.0,1.71,12.25,47.59359,-54.27349
2024-02-26 23:24:00+00:00,211.0,0.72,220.0,1.01,12.25,47.59359,-54.27349
2024-02-26 23:34:00+00:00,216.0,1.23,212.0,1.57,12.25,47.59359,-54.27349
2024-02-26 23:44:00+00:00,255.0,2.04,248.0,2.39,12.25,47.59359,-54.27349
2024-02-26 23:54:00+00:00,249.0,2.8,252.0,3.2,12.25,47.59359,-54.27349
